Regional Weather Roundup
Issued by NWS

Home | Current Version | Previous Version | Text Only | Print | Product List | Glossary On
Versions: 1 2 3 4 5 6 7 8 9 10 11 12 13 14 15 16 17 18 19 20 21 22 23 24 25 26 27 28 29 30 31 32 33 34 35 36 37 38 39 40 41 42 43 44 45 46 47 48 49 50
000
ASUS44 KEWX 070503
RWRTX
SOUTH TEXAS REGIONAL WEATHER ROUNDUP
NATIONAL WEATHER SERVICE AUSTIN/SAN ANTONIO TX
1200 AM CDT TUE JUL 07 2015

NOTE: "FAIR" INDICATED FEW OR NO CLOUDS BELOW 12,000 FEET WITH NO
SIGNIFICANT WEATHER AND/OR OBSTRUCTIONS TO VISIBILITY.

* - THESE STATIONS ARE NOT NWS OR FAA STATIONS...AND ARE NOT SUBJECT
    TO NWS AND FAA QUALITY CONTROL.

TXZ171-172-183>190-070600-
TEXAS HILL COUNTRY AND EDWARDS PLATEAU

CITY           SKY/WX    TMP DP  RH WIND       PRES   REMARKS
JUNCTION       MOCLDY    80  70  71 S7        29.98S
*LLANO         MOCLDY    81  72  74 S9        30.02R
BURNET         MOCLDY    79  71  76 SE10G17   30.03R
*HORSESHOE BAY MOCLDY    80  72  77 S8        30.01R
*KERRVILLE     CLOUDY    77  73  87 S12       30.02R
*FREDERICKSBRG CLOUDY    77  70  79 SE7       30.02R
*ROCKSPRINGS   MOCLDY    77  70  78 SE13G18   30.03S
*BOERNE STAGE  CLOUDY    77  72  83 S8G16     30.03R
*CASTROVILLE   MOCLDY    79  73  81 SE7       29.99R
HONDO          MOCLDY    79  75  87 SE9       29.99R
*UVALDE        CLEAR     79  74  86 E8        29.96R
DEL RIO        CLOUDY    84  69  60 E14G20    29.90R
LAUGHLIN AFB   CLOUDY    83  71  67 SE15      29.91R
CARRIZO SPRGS  CLEAR     82  70  65 SE10G16   29.90F
$$

TXZ173-191>194-202-209-217>225-228-070600-
CENTRAL AND SOUTH CENTRAL TEXAS

CITY           SKY/WX    TMP DP  RH WIND       PRES   REMARKS
GEORGETOWN     CLEAR     81  72  74 S7G17     30.01R
AUSTIN/BERGSTM CLEAR     78  74  87 S6        30.01R
AUSTIN/MABRY   PTCLDY    79  73  82 S6        30.02R
*AUSTIN/EXEC   MOCLDY    77  73  88 CALM      30.02R
*LAGO VISTA    MOCLDY    79  73  81 S8        30.03R
SAN MARCOS     CLEAR     77  72  83 S9        30.01R
NEW BRAUNFELS  PTCLDY    78  75  90 S9        29.98S
RANDOLPH AFB   PTCLDY    77  74  91 SE12      29.99S
PT SAN ANTONIO CLOUDY    80  75  85 SE14G22   29.97R
SAN ANTONIO    CLOUDY    81  74  79 SE17G23   29.99S
STINSON FIELD  CLOUDY    80  75  84 SE12      29.96S
*PLEASANTON    CLOUDY    79  74  84 SE8       29.96F
*LA GRANGE     PTCLDY    80  77  91 CALM      30.01R
*GIDDINGS      CLEAR     78  73  86 SE5       30.06R
*GONZALES      CLOUDY    79  77  92 SE9       29.99S
$$

TXZ163>164-176>182-195>201-210>213-226-227-235-070600-
SOUTHEAST TEXAS

CITY           SKY/WX    TMP DP  RH WIND       PRES   REMARKS
COLLEGE STN    CLEAR     79  74  84 S9        30.03S
*BRYAN         CLEAR     79  75  88 S8        30.05S
*CALDWELL      CLEAR     79  75  89 SE7       30.07R
*CROCKETT      CLEAR     81  77  89 S5        30.07R
*BRENHAM       CLEAR     80  76  86 E3        30.05R
HUNTSVILLE     CLEAR     81  73  76 S5        30.05S
CONROE         PTCLDY    78  73  84 CALM      30.06R
HOUSTON BUSH   PTCLDY    82  76  81 S5        30.05R
HOUSTON HOBBY  PTCLDY    81  76  84 CALM      30.05R
*HOUSTON SW AP PTCLDY    71  71  97 CALM      30.06R
PEARLAND       PTCLDY    82  76  81 NE3       30.07R
HOUSTON HOOKS  MOCLDY    81  75  82 S5        30.05R
ELLINGTON FLD  PTCLDY    82  77  83 CALM      30.06R HX  91
SUGAR LAND     CLOUDY    81  76  84 SE5       30.05R
*HOUSTON EXEC    N/A    N/A N/A N/A MISG        N/A
*CLEVELAND MUN PTCLDY    76  75  96 CALM      30.07R
*WHARTON       CLEAR     78  76  94 E3        30.03R
*COLUMBUS      MOCLDY    78  76  95 CALM      30.03R
$$

TXZ214>216-236>238-070600-
THE UPPER TEXAS COAST

CITY           SKY/WX    TMP DP  RH WIND       PRES   REMARKS
*ORANGE        PTCLDY    82  72  71 S7        30.07R
PORT ARTHUR    PTCLDY    80  76  87 S6        30.05R
GALVESTON      MOCLDY    84  79  85 S13       30.05R HX  96
ANGLETON       MOCLDY    82  78  88 CALM      30.03R HX  91
*BAY CITY      CLOUDY    82  80  92 S5        30.02R HX  94
PALACIOS       CLOUDY    84  79  85 S14       30.01R HX  96
$$

TXZ229>234-239>247-070600-
TEXAS COASTAL BEND AND RIO GRANDE PLAINS

CITY           SKY/WX    TMP DP  RH WIND       PRES   REMARKS
VICTORIA       CLOUDY    80  78  94 S5        30.01R
*BEEVILLE      MOCLDY    79  79 100 S10       29.98S
ROCKPORT       LGT RAIN  83  79  88 S9G17     29.98R HX  94
*PORT ARANSAS  CLOUDY    81  79  94 S9G16     29.98R HX  91
*PORT LAVACA   CLOUDY    81  79  94 S6        30.00R
*INGLESIDE     CLOUDY    83  79  86 S14       29.97S HX  95
CORPUS CHRISTI MOCLDY    82  78  88 S15       29.97R HX  91
CORPUS NAS     CLOUDY    82  80  94 S15G24    29.97S HX  94
*ROBSTOWN      CLEAR     82  79  88 S12G17    29.97R HX  92
ALICE          CLEAR     80  77  90 SE9       29.96R
KINGSVILLE NAS MOCLDY    81  80  97 SE10      29.96R HX  91
COTULLA        CLEAR     83  73  72 SE12      29.94R
*FAITH RANCH   CLEAR     84  72  65 SE10      29.91S
LAREDO         CLEAR     84  73  69 SE14      29.94R HX  90
$$

TXZ248>255-070600-
DEEP SOUTH TEXAS

CITY           SKY/WX    TMP DP  RH WIND       PRES   REMARKS
BROWNSVILLE    CLEAR     82  78  88 S13       29.97R HX  91
PORT ISABEL    PTCLDY    82  79  90 S13       29.96R HX  92
*SOUTH PADRE   CLEAR     79  77  94 SW8       29.98R
HARLINGEN      CLEAR     82  77  84 S12       29.96R HX  90
*HEBBRONVILLE    N/A     79  73  83 SE10      29.96R
MCALLEN        CLEAR     83  76  79 SE16G22   29.96R HX  91
*WESLACO       CLEAR     81  76  84 S10       29.96R
FALFURRIAS     CLEAR     80  75  86 SE6       29.95S
EDINBURG       CLEAR     82  76  81 S8        29.96R
*ZAPATA        CLEAR     83  72  69 SE13G22   29.91R
$$

TXZ213>215-236>238-242>244-246-247-251-254-255-070600-
CMAN STATIONS

STATION/POSITION TIME  TEMP    WIND        PRES    WAVE
                       AIR SEA DIR/SP/G            HT/PER
                 (UTC) (F)     (DEG/KT/KT) (MB)    (FT/S)
$$

GMZ080-GMZ150>470-070600-
OFFSHORE BUOY REPORTS

STATION/POSITION TIME  TEMP    WIND        PRES    WAVE
                       AIR SEA DIR/SP/G            HT/PER
                 (UTC) (F)     (DEG/KT/KT) (MB)    (FT/S)
$$



USA.gov is the U.S. government's official web portal to all federal, state and local government web resources and services.